[[{"header":{"parameterUnit":"m.s-1","parameterCategory":1,"la1":30.2991,"la2":30.254,"lo1":-89.0895,"lo2":-89.0444,"dy":0.0017,"dx":0.0017,"nx":28,"ny":28,"refTime":"2023-10-23T03:00:00:Z","depth":0,"parameterNumber":2,"parameterNumberName":"U-component_of_WINDS"},"data":[0,0,0,0,0,0,0,0,0,0,0,0,0,0,0,0,0,0,0,0,0,0,0,0,0,0,0,0,0,0,0,0,0,0,0,0,0,0,0,0,0,0,0,0,0,0,0,0,0,0,0,0,0,0,0,0,0,0,-7.4676,-7.4676,0,-7.4713,-7.4713,-7.4714,-7.4666,-7.4664,-7.4662,-7.4661,-7.4697,-7.4699,-7.4702,0,0,0,0,0,0,0,0,0,0,0,0,0,-7.4562,-7.4565,-7.4676,-7.4676,-7.4677,-7.4713,-7.4713,-7.4714,-7.4666,-7.4664,-7.4662,-7.466,-7.4696,-7.4699,-7.4702,0,0,0,0,0,0,0,0,0,0,0,0,0,-7.4607,-7.4565,-7.4675,-7.4657,-7.4656,-7.4713,-7.4713,-7.4714,-7.4667,-7.4664,-7.4661,-7.4659,-7.4695,-7.4699,-7.4702,-7.4778,0,0,-7.4714,-7.4716,0,0,0,0,0,0,0,0,-7.4604,-7.4611,-7.4659,-7.4659,-7.4657,-7.4682,-7.4686,-7.4735,-7.4667,-7.4663,-7.4661,-7.4658,-7.4694,-7.4698,-7.471,-7.478,-7.4781,-7.4715,-7.4717,-7.4719,-7.472,0,0,0,0,0,0,0,-7.4601,-7.4609,-7.469,-7.466,-7.4659,-7.4647,-7.465,-7.4695,-7.4692,-7.4663,-7.4659,-7.4665,-7.4693,-7.4707,-7.4711,-7.4782,-7.4714,-7.4718,-7.472,-7.4722,-7.4916,-7.4918,0,0,0,0,0,0,-7.46,-7.4607,-7.4689,-7.4691,-7.4624,-7.4651,-7.4655,-7.4677,-7.4692,-7.4691,-7.4667,-7.4662,-7.4701,-7.4706,-7.4712,-7.48,-7.4719,-7.4722,-7.4724,-7.4913,-7.4916,-7.4919,0,0,0,0,0,0,-7.4598,-7.4608,-7.4687,-7.4648,-7.4657,-7.4656,-7.4681,-7.4679,-7.4692,-7.4695,-7.4694,-7.4681,-7.4699,-7.4706,-7.4762,-7.4801,-7.4724,-7.4727,-7.4909,-7.4914,-7.4918,-7.4979,0,0,0,0,0,0,-7.4595,-7.4608,-7.4636,-7.4649,-7.466,-7.4737,-7.4683,-7.4681,-7.47,-7.4694,-7.4708,-7.4708,-7.4698,-7.4757,-7.4766,-7.4805,-7.473,-7.4906,-7.4911,-7.4916,-7.4973,-7.4984,-7.4994,0,0,0,0,0,-7.4591,-7.4652,-7.4638,-7.4648,-7.4696,-7.474,-7.4746,-7.4733,-7.4703,-7.4731,-7.4733,-7.4708,-7.4796,-7.4763,-7.4773,-7.4813,-7.4903,-7.491,-7.4916,-7.4968,-7.4982,-7.4994,0,0,0,0,0,0,-7.4642,-7.4653,-7.4638,-7.4704,-7.4722,-7.4732,-7.4767,-7.4749,-7.4774,-7.4768,-7.4751,-7.4755,-7.4814,-7.482,-7.4782,-7.4888,-7.4845,-7.4853,-7.4881,-7.4894,-7.4904,-7.49,-7.4734,0,0,0,0,0,-7.4662,-7.4697,-7.4704,-7.4762,-7.4772,-7.4769,-7.4787,-7.4777,-7.4793,-7.48,-7.4806,-7.4823,-7.4854,-7.4875,-7.4904,-7.4975,-7.4977,-7.5008,-7.5019,-7.5027,-7.5034,-7.5071,-7.5085,-7.494,-7.494,-7.494,0,0,-7.4701,-7.4711,-7.4734,-7.4773,-7.4785,-7.4821,-7.4775,-7.4815,-7.4842,-7.4806,-7.4858,-7.4864,-7.4882,-7.4945,-7.4974,-7.4952,-7.5075,-7.5036,-7.5042,-7.5044,-7.5079,-7.5093,-7.5105,-7.4945,-7.4944,-7.4943,0,0,-7.4791,-7.4803,-7.4852,-7.4866,-7.4885,-7.4883,-7.4895,-7.4909,-7.4911,-7.4964,-7.4938,-7.497,-7.5025,-7.5038,-7.5052,-7.515,-7.5127,-7.5161,-7.5214,-7.5251,-7.5262,-7.5272,-7.5305,-7.5317,-7.5168,-7.5168,-7.5168,0,-7.4836,-7.4891,-7.4879,-7.4922,-7.4939,-7.4911,-7.496,-7.4974,-7.5002,-7.5014,-7.499,-7.5059,-7.5069,-7.5135,-7.5159,-7.5173,-7.5185,-7.5157,-7.5262,-7.5271,-7.528,-7.5312,-7.5324,-7.5172,-7.5172,-7.5171,-7.5171,0,-7.4946,-7.4984,-7.5021,-7.505,-7.5072,-7.5118,-7.5113,-7.5137,-7.5126,-7.5126,-7.518,-7.5192,-7.5223,-7.5239,-7.5228,-7.5303,-7.5289,-7.5264,-7.522,-7.5298,-7.5327,-7.5339,-7.5177,-7.5176,-7.5175,-7.5174,0,0,-7.5065,-7.5088,-7.5102,-7.5114,-7.5135,-7.5164,-7.521,-7.5241,-7.526,-7.5282,-7.5318,-7.5367,-7.5344,-7.536,-7.5351,-7.5383,-7.5458,-7.5354,-7.5354,-7.5371,-7.5541,-7.5557,-7.5571,-7.5445,-7.5448,-7.5449,-7.5539,0,-7.5153,-7.523,-7.5223,-7.5296,-7.5331,-7.5306,-7.5345,-7.5362,-7.5364,-7.5394,-7.5397,-7.543,-7.5399,-7.5408,-7.544,-7.5443,-7.5492,-7.5437,-7.5477,-7.5478,-7.547,-7.5587,-7.5604,-7.5688,-7.555,-7.5552,-7.5554,0,-7.5265,-7.5291,-7.5368,-7.5384,-7.5398,-7.5434,-7.5462,-7.5491,-7.551,-7.5509,-7.5529,-7.5515,-7.556,-7.5518,-7.5579,-7.5541,-7.5558,-7.5563,-7.5566,-7.5566,-7.5518,-7.5588,-7.5714,-7.5726,-7.5572,-7.557,-7.5569,0,-7.5341,-7.5396,-7.5449,-7.5461,-7.5481,-7.5507,-7.5516,-7.5533,-7.5552,-7.5578,-7.559,-7.562,-7.5636,-7.566,-7.5654,-7.5624,-7.5716,-7.5674,-7.5715,-7.5715,-7.5732,-7.5731,-7.586,-7.5749,-7.5749,-7.5748,-7.5748,0,-7.5438,-7.5486,-7.5483,-7.5516,-7.5568,-7.556,-7.5612,-7.5619,-7.5634,-7.5667,-7.5649,-7.568,-7.5672,-7.5703,-7.5699,-7.5749,-7.5757,-7.5757,-7.5755,-7.5757,-7.5757,-7.5765,-7.5758,-7.5752,-7.5751,-7.575,-7.575,0,-7.5531,-7.5531,-7.5587,-7.5603,-7.5608,-7.5646,-7.5659,-7.5689,-7.5692,-7.5734,-7.5743,-7.5746,-7.5782,-7.5779,-7.5819,-7.5817,-7.5879,-7.5871,-7.5872,-7.5869,-7.591,-7.5905,-7.6047,-7.6064,-7.5944,-7.5945,-7.5946,0,-7.5591,-7.5627,-7.5648,-7.5669,-7.568,-7.5714,-7.5734,-7.5728,-7.575,-7.5775,-7.5802,-7.5837,-7.5863,-7.5922,-7.5927,-7.5958,-7.5949,-7.5997,-7.5953,-7.5954,-7.5947,-7.5943,-7.5946,-7.6004,-7.6005,-7.6007,-7.6008,0,-7.5698,-7.5697,-7.5727,-7.5757,-7.5782,-7.5806,-7.5827,-7.5846,-7.5842,-7.5867,-7.5904,-7.5925,-7.5966,-7.6,-7.603,-7.6039,-7.6023,-7.6022,-7.6033,-7.6033,-7.6031,-7.6031,-7.5892,-7.6018,-7.6017,-7.6016,-7.6015,-7.6015,-7.5774,-7.5805,-7.5824,-7.5858,-7.5874,-7.5895,-7.5924,-7.5931,-7.5961,-7.5995,-7.599,-7.6031,-7.605,-7.6088,-7.6101,-7.6132,-7.6115,-7.6131,-7.6135,-7.6138,-7.6142,-7.6029,-7.6138,-7.6138,-7.6138,-7.6138,-7.6137,0,-7.5878,-7.5889,-7.5921,-7.5952,-7.5979,-7.5963,-7.5987,-7.601,-7.6046,-7.6066,-7.6093,-7.6135,-7.6168,-7.6178,-7.6209,-7.6233,-7.6226,-7.6241,-7.6238,-7.624,-7.6156,-7.6143,-7.6246,-7.6246,-7.6246,-7.6246,-7.6246,-7.6246,-7.5934,-7.5985,-7.5987,-7.6046,-7.6057,-7.6097,-7.6111,-7.613,-7.6146,-7.6194,-7.6222,-7.6228,-7.6243,-7.6277,-7.6306,-7.6308,-7.632,-7.6338,-7.6336,-7.6257,-7.6246,-7.6235,-7.6222,-7.6341,-7.6341,-7.6417,-7.6417,-7.6418]},{"header":{"parameterUnit":"m.s-1","parameterCategory":1,"la1":30.2991,"la2":30.254,"lo1":-89.0895,"lo2":-89.0444,"dy":0.0017,"dx":0.0017,"nx":28,"ny":28,"refTime":"2023-10-23T03:00:00:Z","depth":0,"parameterNumber":3,"parameterNumberName":"V-component_of_WINDS"},"data":[0,0,0,0,0,0,0,0,0,0,0,0,0,0,0,0,0,0,0,0,0,0,0,0,0,0,0,0,0,0,0,0,0,0,0,0,0,0,0,0,0,0,0,0,0,0,0,0,0,0,0,0,0,0,0,0,0,0,2.499,2.4991,0,2.5028,2.5028,2.5029,2.5059,2.506,2.506,2.506,2.5097,2.5097,2.5098,0,0,0,0,0,0,0,0,0,0,0,0,0,2.4941,2.4942,2.499,2.4991,2.4991,2.5028,2.5028,2.5029,2.5059,2.506,2.506,2.506,2.5096,2.5097,2.5098,0,0,0,0,0,0,0,0,0,0,0,0,0,2.4969,2.4942,2.499,2.5011,2.5013,2.5028,2.5029,2.5029,2.5059,2.506,2.506,2.506,2.5096,2.5097,2.5098,2.5095,0,0,2.5101,2.5102,0,0,0,0,0,0,0,0,2.4967,2.4971,2.5007,2.5009,2.5012,2.5039,2.5025,2.5051,2.5059,2.5041,2.506,2.5061,2.5077,2.508,2.5086,2.5097,2.5098,2.5101,2.5102,2.5102,2.5103,0,0,0,0,0,0,0,2.4965,2.4969,2.5005,2.5008,2.501,2.5017,2.5022,2.503,2.5056,2.5043,2.5045,2.505,2.5078,2.5085,2.5087,2.5099,2.5101,2.5102,2.5103,2.5103,2.511,2.5109,0,0,0,0,0,0,2.4961,2.4967,2.5004,2.5006,2.499,2.5018,2.5023,2.503,2.5056,2.5061,2.5049,2.5051,2.5083,2.5086,2.5088,2.5087,2.5102,2.5103,2.5104,2.511,2.511,2.5109,0,0,0,0,0,0,2.4959,2.4964,2.5002,2.4987,2.4993,2.5018,2.5026,2.5031,2.5037,2.5061,2.5065,2.5051,2.5083,2.5087,2.5093,2.5089,2.5104,2.5105,2.5111,2.511,2.5109,2.5085,0,0,0,0,0,0,2.4958,2.4963,2.4963,2.4987,2.4994,2.5008,2.5026,2.5031,2.5039,2.5041,2.5064,2.5068,2.5084,2.5092,2.5094,2.509,2.5105,2.5111,2.511,2.511,2.5086,2.5083,2.5081,0,0,0,0,0,2.4956,2.4954,2.4963,2.4967,2.4994,2.5007,2.5011,2.503,2.5038,2.5038,2.5053,2.5067,2.5088,2.5092,2.5095,2.5092,2.5112,2.5111,2.511,2.5087,2.5084,2.5081,0,0,0,0,0,0,2.4927,2.4957,2.4968,2.4973,2.4988,2.5012,2.5013,2.5026,2.5038,2.504,2.5062,2.5067,2.5071,2.5082,2.5085,2.509,2.5102,2.5101,2.5084,2.508,2.5078,2.5076,2.5106,0,0,0,0,0,2.4921,2.4931,2.4956,2.4958,2.4965,2.4988,2.4994,2.5008,2.5023,2.5029,2.5045,2.5059,2.5069,2.5075,2.5085,2.5087,2.5092,2.5086,2.5083,2.5081,2.5081,2.5083,2.5081,2.5106,2.5106,2.5106,0,0,2.491,2.4927,2.4932,2.4953,2.4966,2.4974,2.4993,2.5,2.5007,2.503,2.5038,2.505,2.5067,2.5071,2.5074,2.508,2.5075,2.508,2.5078,2.5079,2.5082,2.508,2.5077,2.5105,2.5105,2.5105,0,0,2.4893,2.4907,2.4911,2.4924,2.4943,2.4958,2.4959,2.4982,2.4991,2.4999,2.5017,2.5024,2.5041,2.5052,2.506,2.5047,2.5061,2.505,2.5037,2.5039,2.5037,2.5035,2.5032,2.503,2.5049,2.5049,2.5049,0,2.4877,2.4891,2.4911,2.4919,2.4928,2.4949,2.4954,2.4964,2.4985,2.4991,2.4998,2.5019,2.5032,2.504,2.5037,2.5042,2.5044,2.5048,2.5035,2.5034,2.5033,2.503,2.5028,2.5048,2.5048,2.5048,2.5048,0,2.4869,2.4879,2.4879,2.4901,2.4909,2.4915,2.4936,2.4942,2.4954,2.4968,2.4976,2.4992,2.5006,2.5009,2.502,2.5018,2.5022,2.5031,2.5044,2.5029,2.5026,2.5025,2.5046,2.5046,2.5047,2.5047,0,0,2.4837,2.487,2.487,2.488,2.4902,2.491,2.4915,2.493,2.4935,2.4949,2.4955,2.4968,2.4977,2.4986,2.4999,2.5001,2.4991,2.5011,2.5011,2.5007,2.499,2.4983,2.4981,2.4999,2.4999,2.4999,2.4989,0,2.4825,2.4839,2.4857,2.4864,2.4873,2.4894,2.4899,2.4913,2.4926,2.4934,2.4948,2.4958,2.4969,2.4975,2.4977,2.4991,2.4988,2.4992,2.5005,2.5005,2.5002,2.498,2.4973,2.4963,2.4988,2.4988,2.4987,0,2.4814,2.4827,2.4836,2.4858,2.4862,2.4867,2.4882,2.489,2.4906,2.4915,2.4925,2.4939,2.4946,2.4956,2.4966,2.4968,2.4974,2.4982,2.4982,2.4985,2.4996,2.4983,2.496,2.4959,2.4986,2.4986,2.4986,0,2.4791,2.4811,2.4819,2.4826,2.4852,2.4855,2.4865,2.4882,2.4889,2.4902,2.4907,2.492,2.4927,2.4936,2.4953,2.4959,2.4962,2.4973,2.497,2.4969,2.497,2.497,2.4949,2.4972,2.4972,2.4972,2.4972,0,2.4777,2.4781,2.4809,2.4814,2.4819,2.4839,2.4844,2.4856,2.487,2.4878,2.4895,2.4901,2.4923,2.4931,2.4944,2.4951,2.4953,2.4961,2.4965,2.496,2.496,2.4966,2.4967,2.4971,2.4972,2.4972,2.4972,0,2.4753,2.4772,2.4782,2.4805,2.4811,2.4814,2.4833,2.4839,2.4852,2.4861,2.4864,2.4885,2.4895,2.4913,2.4929,2.4938,2.4942,2.4947,2.4937,2.494,2.4936,2.4936,2.4919,2.4918,2.494,2.4939,2.4939,0,2.4744,2.4748,2.4772,2.4778,2.4788,2.4798,2.4806,2.4826,2.4833,2.4852,2.4854,2.4867,2.4878,2.4894,2.491,2.4922,2.4929,2.4922,2.4931,2.4927,2.493,2.493,2.4931,2.492,2.492,2.492,2.4919,0,2.4725,2.4734,2.4746,2.476,2.477,2.4782,2.4795,2.4799,2.4821,2.4828,2.484,2.4849,2.4865,2.4877,2.4891,2.4902,2.4914,2.4916,2.4916,2.4913,2.4907,2.4911,2.4933,2.4917,2.4917,2.4917,2.4917,2.4917,2.471,2.4714,2.4732,2.4744,2.4756,2.4767,2.4774,2.4788,2.4798,2.4814,2.4824,2.4835,2.485,2.4871,2.488,2.4889,2.4895,2.4894,2.4895,2.4895,2.4893,2.4904,2.4891,2.4892,2.4892,2.4892,2.4892,0,2.4693,2.4705,2.4716,2.4734,2.4743,2.4754,2.4769,2.4776,2.4786,2.4799,2.481,2.4823,2.4835,2.4852,2.4865,2.4868,2.4875,2.4871,2.4872,2.4874,2.4887,2.4886,2.4866,2.4866,2.4866,2.4866,2.4866,2.4866,2.4686,2.4695,2.4705,2.472,2.4732,2.4743,2.4751,2.4762,2.4773,2.4787,2.4797,2.4808,2.4823,2.4837,2.4848,2.4853,2.4857,2.4852,2.4858,2.4871,2.4873,2.4875,2.4875,2.4852,2.4852,2.4845,2.4845,2.4845]}]]